Weather Roundup
Issued by NWS Springfield, MO

Home | Current Version | Previous Version | Text Only | Print | Product List | Glossary On
Versions: 1 2 3 4 5 6 7 8 9 10 11 12 13 14 15 16 17 18 19 20 21 22 23 24 25 26 27 28 29 30 31 32 33 34 35 36 37 38 39 40 41 42 43 44 45 46 47 48 49 50
187
NZUS99 KSGF 031457
HRRSGF

HOURLY WEATHER
NATIONAL WEATHER SERVICE SPRINGFIELD MO
1000 AM CDT TUE MAY 03 2016

......SGF CWA......

CITY           SKY/WX    TMP DP  RH WIND       PRES   REMARKS
SPRINGFIELD    SUNNY     56  45  66 NW9       30.09S
JOPLIN         SUNNY     57  46  66 NW3       30.12R
WEST PLAINS    MOSUNNY   59  44  57 N9G18     30.08S
ROLLA          PTSUNNY   53  48  83 W6        30.06S
BRANSON        PTSUNNY   55  45  67 N8        30.11R

......SURROUNDING SGF CWA......

CITY           SKY/WX    TMP DP  RH WIND       PRES   REMARKS
CHANUTE        SUNNY     61  43  51 CALM      30.11S
PARSONS        SUNNY     59  44  57 CALM      30.12S
COFFEYVILLE    SUNNY     58  47  66 CALM      30.12R
EMPORIA        SUNNY     60  44  55 S5        30.09S
HARRISON AR    CLOUDY    54  45  71 NW7       30.10R

......KANSAS AND MISSOURI......

CITY           SKY/WX    TMP DP  RH WIND       PRES   REMARKS
KANSAS CTY INT CLOUDY    59  46  62 W5        30.09S
COLUMBIA       MOSUNNY   52  50  93 VRB5      30.08S
SEDALIA        SUNNY     58  49  72 N6        30.09S
ST JOSEPH      SUNNY     55  49  80 S3        30.09S
ST LOUIS       MOSUNNY   61  47  59 NW6       30.05S
WICHITA        MOSUNNY   57  46  66 S3        30.09R
TOPEKA         SUNNY     59  46  62 SW6       30.09F
OLATHE         SUNNY     58  45  62 W7        30.09S

......TENNESSEE......

CITY           SKY/WX    TMP DP  RH WIND       PRES   REMARKS
MEMPHIS        CLOUDY    63  52  67 N5        30.04R
NASHVILLE      PTSUNNY   60  48  64 NW6       29.99R

......ARKANSAS.......

CITY           SKY/WX    TMP DP  RH WIND       PRES   REMARKS
FAYETTEVILLE   PTSUNNY   54  48  80 CALM      30.11R
FT SMITH       SUNNY     58  44  60 VRB3      30.11S
LITTLE ROCK    PTSUNNY   62  48  60 NW9       30.09R

......OKLAHOMA.......

CITY           SKY/WX    TMP DP  RH WIND       PRES   REMARKS
TULSA          MOSUNNY   59  48  67 CALM      30.11S
PONCA CITY     SUNNY     60  45  57 VRB7      30.10S
MCALESTER      MOSUNNY   61  49  64 N7        30.13S
OKLAHOMA CITY  MOSUNNY   60  47  61 SW12      30.13R

......IOWA............

CITY           SKY/WX    TMP DP  RH WIND       PRES   REMARKS
DES MOINES     NOT AVBL
QUAD CITIES    SUNNY     60  44  55 W9G17     30.00F

......ILLINOIS........

CITY           SKY/WX    TMP DP  RH WIND       PRES   REMARKS
QUINCY         PTSUNNY   58  45  62 NW8       30.05S
CHICAGO        MOSUNNY   59  39  47 W8        29.95F




USA.gov is the U.S. government's official web portal to all federal, state and local government web resources and services.